YUNHAI 1-02 DEB

Satellite information

Favourite Embed

Satellite Type and Status

DEBRISIN ORBIT

Key statistics

Satellite YUNHAI 1-02 DEB at a glance.

Uptime

2173

Days in orbit

Revolutions

≈ 14.8

Per day

Orbit

SSO

Sun Synchronous Orbit

Inclination

98.4

Latest

Satellite identification and parameters

Extended collection of information and parameters for YUNHAI 1-02 DEB.

Object identification

Identified? True

Debris? True

Object name: YUNHAI 1-02 DEB

International designator: 2019-063M

Object number (NORAD): 48193

Object ID (CCSDS): 48193

Country: PEOPLES REPUBLIC OF CHINA (PRC)

Current information (Y/N): Y

RCS size: SMALL

Orbital parameters

Period: 97.035 minutes

Inclination: 98.4223 deg

SMA: 6994.858 km

Apoapsis: 625.332 km

Periapsis: 608.113 km

RAAN: 284.8544 deg

Eccentricy: 0.00123087

Argument of periapsis: 209.5756 deg

Mean anomaly: 150.4761 deg

Mean motion: 14.84001861 rev/day

Mean motion (dot): 0.00060183 rev/day2

B* drag term: 0.0071658808 1/REarth

Two-line elements (TLE)

Creation date: Sept. 6, 2025, 2:09 a.m.

Reference frame: TEME

Reference center: EARTH

Epoch: Sept. 5, 2025, 3:25 p.m. UTC

TLE line 0: 0 YUNHAI 1-02 DEB

TLE line 1: 1 48193U 19063M 25248.64249632 .00060183 00000-0 71659-2 0 9999

TLE line 2: 2 48193 98.4223 284.8544 0012309 209.5756 150.4761 14.84001861234465

Live tracking on map

Real-time ground track for satellite YUNHAI 1-02 DEB.

In-orbit conjunctions

A list of the most updated potential collisions computed for object YUNHAI 1-02 DEB.

Target Orbit TCA Probability of collision Miss distance Type
ATLAS 5 CENTAUR R/B LEO 2024-11-08 04:58:12 0.001055666 677.0 (m) ROCKET BODY

Associated space launch

The Yunhai-1 satellite is designed for detecting environmental elements in the atmosphere and ocean, the space environment, disaster prevention and reduction, and scientific experimentation. It is made by the Shanghai Institute of Spaceflight Technology.

YUNHAI 1-02 DEB was lifted into orbit during the mission ‘Long March 2D | Yunhai-1-02’, on board a Long March 2D space rocket.

The launch took place on Sept. 25, 2019, 12:54 a.m. from Launch Area 4 (SLS-2 / 603).

For more information about the launch, click the button.

Launch to space Long March 2D | Yunhai-1-02
Long March 2D | Yunhai-1-02

Agency: N/A

Status: Launch Successful

Launch date: Sept. 25, 2019, 12:54 a.m. UTC

Rocket: Long March 2D

Launch pad: Launch Area 4 (SLS-2 / 603)

Location: Jiuquan Satellite Launch Center, People's Republic of China

...

Latest news about this satellite

News about space launch
Breakup of China’s Yunhai-1 (02) satellite linked to space debris collision

U.S. space tracking has linked the breakup of Chinese satellite Yunhai-1 (02) to a collision with a small piece of debris from a Russian satellite launch, according to NASA.


Newsletter sign-up

Weekly statistics, charts and insights to help you stay on top of the space industry.